Location: Unspecified
(47.8330°N, 0.0000°E)
Time: 12:30:27
(UTC+00:00)

Envisat - Visible Passes

Search period start: 17 October 2019 00:00
Search period end: 27 October 2019 00:00
Orbit: 764 x 766 km, 98.1° (Epoch: 17 October)

Date Brightness Start Highest point End Pass type
(mag) Time Alt. Az. Time Alt. Az. Time Alt. Az.
17 Oct 3.0 17:43:30 10° SSE 17:48:33 70° ENE 17:53:37 10° N visible
17 Oct 5.8 19:24:48 10° SW 19:28:05 17° W 19:31:24 10° NW visible
18 Oct 6.1 05:49:50 10° NE 05:53:25 19° E 05:56:57 10° SE visible
18 Oct 4.7 18:46:21 10° SSW 18:50:58 35° W 18:55:37 10° NNW visible
19 Oct 3.3 18:08:58 10° S 18:14:02 72° WSW 18:19:09 10° NNW visible
20 Oct 3.1 17:32:21 10° SSE 17:37:19 57° ENE 17:42:18 10° N visible
20 Oct 5.5 19:12:53 10° SW 19:16:42 21° W 19:20:33 10° NW visible
21 Oct 6.2 05:39:04 10° NE 05:42:00 15° E 05:44:55 10° ESE visible
21 Oct 4.3 18:34:49 10° S 18:39:37 43° W 18:44:29 10° NNW visible
22 Oct 3.0 17:57:41 10° SSE 18:02:46 88° WSW 18:07:53 10° NNW visible
22 Oct 6.1 19:40:23 10° WSW 19:42:32 13° W 19:44:42 10° WNW visible
23 Oct 3.3 17:21:16 10° SE 17:26:06 46° ENE 17:30:57 10° N visible
23 Oct 5.2 19:01:06 10° SSW 19:05:19 26° W 19:09:34 10° NW visible
24 Oct 6.4 05:28:38 10° ENE 05:30:35 12° E 05:32:31 10° ESE visible
24 Oct 3.8 18:23:22 10° S 18:28:19 53° W 18:33:19 10° NNW visible
25 Oct 2.9 17:46:27 10° SSE 17:51:30 76° ENE 17:56:36 10° N visible
25 Oct 5.9 19:28:04 10° SW 19:31:07 16° W 19:34:10 10° NW visible
26 Oct 6.0 05:52:40 10° NE 05:56:26 20° E 06:00:10 10° SE visible
26 Oct 4.8 18:49:27 10° SSW 18:53:58 32° W 18:58:31 10° NNW visible
